Location: Moscow
(38.3171°N, 79.0889°W)
Time: 01:08:55
(UTC+00:00)

SJ-12 - Pass Details

Date: 07 November 2025
Orbit: 517 x 528 km, 97.8° (Epoch: 08 December)

Event Time Altitude Azimuth Distance (km) Brightness Sun altitude
Rises 22:29:07 0° 150° (SSE) 2,653 7.2 -4.3°
Reaches altitude 10° 22:31:18 10° 143° (SE) 1,767 6.2 -4.7°
Maximum altitude 22:34:52 40° 73° (ENE) 789 4.2 -5.4°
Drops below altitude 10° 22:38:28 10° 3° (N) 1,772 6.2 -6.1°
Sets 22:40:39 0° 356° (N) 2,663 7.2 -6.5°
